Simultaneous Nadir Overpasses (SNOs) Predictions

Prediction of SNOs between GOES-17 and METOP-B Satellite Orbit:

Table of predicted SNOs for the next 14.0 days since TLE Epoch: 4/11/2025
Index Date Time (GOES-17) GOES-17 Lat,Lon METOP-B Lat,Lon Distance(km) Time Diff (sec)
1 04/13/2025 04:08:03 -0.04,-104.37 -0.04,-104.29 8.21 80
2 04/15/2025 16:03:38 0.04,-104.41 -0.06,-103.90 57.59 80
3 04/17/2025 04:22:40 -0.03,-104.36 -0.95,-108.53 475.13 80
4 04/18/2025 04:04:42 -0.03,-104.36 0.16,-103.55 91.96 80
5 04/19/2025 16:23:35 0.03,-104.40 0.83,-108.15 426.18 80
6 04/20/2025 16:00:15 0.02,-104.39 -0.24,-103.15 140.87 80
7 04/22/2025 04:19:18 -0.02,-104.34 -0.76,-107.78 391.97 80
8 04/23/2025 04:01:18 -0.02,-104.33 0.31,-102.79 175.30 80
9 04/24/2025 16:17:32 0.02,-104.38 0.66,-107.39 342.35 80
10 04/25/2025 15:56:52 0.02,-104.38 -0.41,-102.40 225.05 80
